Time,TemperatureF,DewpointF,PressureIn,WindDirection,WindDirectionDegrees,WindSpeedMPH,WindSpeedGustMPH,Humidity,HourlyPrecipIn,Conditions,Clouds,dailyrainin,SoftwareType,DateUTC
2013-04-01 00:12:00,35.0,24.0,30.21,NNW,331,2.0,3.0,64,0.00,,,0.00,weatherlink.com 1.10,2013-04-01 06:12:00,
2013-04-01 00:27:00,34.9,24.0,30.21,NNW,331,0.0,3.0,64,0.00,,,0.00,weatherlink.com 1.10,2013-04-01 06:27:00,
2013-04-01 00:42:00,35.0,23.0,30.21,NNW,331,0.0,2.0,63,0.00,,,0.00,weatherlink.com 1.10,2013-04-01 06:42:00,
2013-04-01 00:57:00,34.0,23.0,30.21,NNW,331,0.0,3.0,65,0.00,,,0.00,weatherlink.com 1.10,2013-04-01 06:57:00,
2013-04-01 01:12:00,32.2,23.0,30.21,NNW,331,0.0,1.0,68,0.00,,,0.00,weatherlink.com 1.10,2013-04-01 07:12:00,
2013-04-01 01:28:00,32.1,23.0,30.21,NNW,331,4.0,5.0,70,0.00,,,0.00,weatherlink.com 1.10,2013-04-01 07:28:00,
2013-04-01 01:43:00,32.9,23.0,30.22,WNW,298,3.0,6.0,67,0.00,,,0.00,weatherlink.com 1.10,2013-04-01 07:43:00,
2013-04-01 01:58:00,32.1,23.0,30.22,NW,313,6.0,6.0,70,0.00,,,0.00,weatherlink.com 1.10,2013-04-01 07:58:00,
2013-04-01 02:13:00,33.4,23.0,30.22,NW,312,0.0,7.0,66,0.00,,,0.00,weatherlink.com 1.10,2013-04-01 08:13:00,
2013-04-01 02:28:00,32.7,23.0,30.23,NW,321,4.0,7.0,68,0.00,,,0.00,weatherlink.com 1.10,2013-04-01 08:28:00,
2013-04-01 02:43:00,34.1,23.0,30.23,NW,310,0.0,4.0,64,0.00,,,0.00,weatherlink.com 1.10,2013-04-01 08:43:00,
2013-04-01 02:58:00,34.4,23.0,30.23,WNW,291,6.0,6.0,63,0.00,,,0.00,weatherlink.com 1.10,2013-04-01 08:58:00,
2013-04-01 03:13:00,34.9,23.0,30.23,West,278,4.0,8.0,62,0.00,,,0.00,weatherlink.com 1.10,2013-04-01 09:13:00,
2013-04-01 03:28:00,33.8,23.0,30.23,West,275,4.0,8.0,65,0.00,,,0.00,weatherlink.com 1.10,2013-04-01 09:28:00,
2013-04-01 03:43:00,34.0,22.0,30.23,West,264,3.0,8.0,63,0.00,,,0.00,weatherlink.com 1.10,2013-04-01 09:43:00,
2013-04-01 03:58:00,32.9,23.0,30.23,West,264,0.0,2.0,66,0.00,,,0.00,weatherlink.com 1.10,2013-04-01 09:58:00,
2013-04-01 04:13:00,32.5,22.0,30.22,West,264,2.0,3.0,66,0.00,,,0.00,weatherlink.com 1.10,2013-04-01 10:13:00,
2013-04-01 04:28:00,32.7,22.0,30.23,West,264,0.0,2.0,66,0.00,,,0.00,weatherlink.com 1.10,2013-04-01 10:28:00,
2013-04-01 04:43:00,31.6,22.0,30.22,West,264,0.0,1.0,68,0.00,,,0.00,weatherlink.com 1.10,2013-04-01 10:43:00,
2013-04-01 04:58:00,31.6,22.0,30.23,West,264,4.0,4.0,67,0.00,,,0.00,weatherlink.com 1.10,2013-04-01 10:58:00,
2013-04-01 05:13:00,32.9,22.0,30.23,West,271,4.0,6.0,64,0.00,,,0.00,weatherlink.com 1.10,2013-04-01 11:13:00,
2013-04-01 05:28:00,32.7,22.0,30.23,WSW,249,3.0,5.0,64,0.00,,,0.00,weatherlink.com 1.10,2013-04-01 11:28:00,
2013-04-01 05:43:00,31.0,21.0,30.23,WSW,249,2.0,3.0,67,0.00,,,0.00,weatherlink.com 1.10,2013-04-01 11:43:00,
2013-04-01 05:58:00,29.1,21.0,30.23,WSW,249,2.0,3.0,71,0.00,,,0.00,weatherlink.com 1.10,2013-04-01 11:58:00,
2013-04-01 06:13:00,27.9,21.0,30.23,WSW,249,1.0,1.0,74,0.00,,,0.00,weatherlink.com 1.10,2013-04-01 12:13:00,
2013-04-01 06:28:00,26.7,20.0,30.23,WSW,249,1.0,2.0,76,0.00,,,0.00,weatherlink.com 1.10,2013-04-01 12:28:00,
2013-04-01 06:43:00,26.9,20.0,30.23,WSW,249,1.0,3.0,76,0.00,,,0.00,weatherlink.com 1.10,2013-04-01 12:43:00,
2013-04-01 06:58:00,26.9,20.0,30.24,WSW,249,1.0,2.0,76,0.00,,,0.00,weatherlink.com 1.10,2013-04-01 12:58:00,
2013-04-01 07:13:00,27.0,20.0,30.24,WSW,249,1.0,3.0,75,0.00,,,0.00,weatherlink.com 1.10,2013-04-01 13:13:00,
2013-04-01 07:28:00,27.2,20.0,30.24,WSW,249,0.0,2.0,75,0.00,,,0.00,weatherlink.com 1.10,2013-04-01 13:28:00,
2013-04-01 07:43:00,28.1,21.0,30.25,WSW,249,1.0,4.0,74,0.00,,,0.00,weatherlink.com 1.10,2013-04-01 13:43:00,
2013-04-01 07:58:00,29.7,22.0,30.25,WSW,249,1.0,3.0,73,0.00,,,0.00,weatherlink.com 1.10,2013-04-01 13:58:00,
2013-04-01 08:13:00,31.8,24.0,30.25,WSW,249,0.0,1.0,73,0.00,,,0.00,weatherlink.com 1.10,2013-04-01 14:13:00,
2013-04-01 08:43:00,37.2,22.0,30.25,NNW,342,1.0,8.0,54,0.00,,,0.00,weatherlink.com 1.10,2013-04-01 14:43:00,
2013-04-01 08:58:00,37.9,22.0,30.25,North,11,5.0,8.0,53,0.00,,,0.00,weatherlink.com 1.10,2013-04-01 14:58:00,
2013-04-01 09:13:00,38.8,22.0,30.24,NW,317,0.0,7.0,52,0.00,,,0.00,weatherlink.com 1.10,2013-04-01 15:13:00,
2013-04-01 09:28:00,39.5,23.0,30.25,NW,319,2.0,7.0,51,0.00,,,0.00,weatherlink.com 1.10,2013-04-01 15:28:00,
2013-04-01 09:43:00,39.6,23.0,30.25,NNW,334,3.0,7.0,51,0.00,,,0.00,weatherlink.com 1.10,2013-04-01 15:43:00,
2013-04-01 09:58:00,40.8,23.0,30.24,NW,320,0.0,9.0,49,0.00,,,0.00,weatherlink.com 1.10,2013-04-01 15:58:00,
2013-04-01 10:13:00,40.8,23.0,30.25,ENE,60,7.0,9.0,49,0.00,,,0.00,weatherlink.com 1.10,2013-04-01 16:13:00,
2013-04-01 10:29:00,41.3,23.0,30.24,NNE,20,1.0,11.0,48,0.00,,,0.00,weatherlink.com 1.10,2013-04-01 16:29:00,
2013-04-01 10:44:00,42.3,23.0,30.24,NE,39,3.0,9.0,46,0.00,,,0.00,weatherlink.com 1.10,2013-04-01 16:44:00,
2013-04-01 10:59:00,43.1,22.0,30.24,NNE,19,7.0,8.0,44,0.00,,,0.00,weatherlink.com 1.10,2013-04-01 16:59:00,
2013-04-01 11:14:00,43.5,23.0,30.23,NE,50,4.0,10.0,44,0.00,,,0.00,weatherlink.com 1.10,2013-04-01 17:14:00,
2013-04-01 11:29:00,44.6,23.0,30.23,North,354,3.0,10.0,43,0.00,,,0.00,weatherlink.com 1.10,2013-04-01 17:29:00,
2013-04-01 11:44:00,45.8,24.0,30.23,NW,314,5.0,7.0,43,0.00,,,0.00,weatherlink.com 1.10,2013-04-01 17:44:00,
2013-04-01 11:59:00,45.5,23.0,30.23,NW,326,4.0,8.0,41,0.00,,,0.00,weatherlink.com 1.10,2013-04-01 17:59:00,
2013-04-01 12:14:00,46.5,22.0,30.23,ESE,104,5.0,11.0,38,0.00,,,0.00,weatherlink.com 1.10,2013-04-01 18:14:00,
2013-04-01 12:29:00,47.0,22.0,30.23,East,97,1.0,8.0,38,0.00,,,0.00,weatherlink.com 1.10,2013-04-01 18:29:00,
2013-04-01 12:44:00,47.0,23.0,30.22,SW,226,3.0,11.0,39,0.00,,,0.00,weatherlink.com 1.10,2013-04-01 18:44:00,
2013-04-01 12:59:00,47.6,23.0,30.22,ESE,108,4.0,15.0,38,0.00,,,0.00,weatherlink.com 1.10,2013-04-01 18:59:00,
2013-04-01 13:14:00,50.1,24.0,30.21,ESE,106,9.0,10.0,36,0.00,,,0.00,weatherlink.com 1.10,2013-04-01 19:14:00,
2013-04-01 13:29:00,48.8,22.0,30.21,NNE,21,4.0,10.0,35,0.00,,,0.00,weatherlink.com 1.10,2013-04-01 19:29:00,
2013-04-01 13:44:00,49.2,22.0,30.20,North,359,4.0,8.0,35,0.00,,,0.00,weatherlink.com 1.10,2013-04-01 19:44:00,
2013-04-01 13:59:00,49.5,23.0,30.20,NE,39,3.0,10.0,36,0.00,,,0.00,weatherlink.com 1.10,2013-04-01 19:59:00,
2013-04-01 14:14:00,49.8,24.0,30.20,NNW,329,3.0,6.0,36,0.00,,,0.00,weatherlink.com 1.10,2013-04-01 20:14:00,
2013-04-01 14:29:00,51.1,23.0,30.20,NE,52,5.0,10.0,33,0.00,,,0.00,weatherlink.com 1.10,2013-04-01 20:29:00,
2013-04-01 14:44:00,50.4,23.0,30.20,ESE,105,8.0,8.0,34,0.00,,,0.00,weatherlink.com 1.10,2013-04-01 20:44:00,
2013-04-01 14:59:00,49.5,23.0,30.20,ESE,116,1.0,11.0,35,0.00,,,0.00,weatherlink.com 1.10,2013-04-01 20:59:00,
2013-04-01 15:14:00,49.8,23.0,30.20,East,98,2.0,13.0,35,0.00,,,0.00,weatherlink.com 1.10,2013-04-01 21:14:00,
2013-04-01 15:30:00,50.2,23.0,30.19,North,359,4.0,13.0,34,0.00,,,0.00,weatherlink.com 1.10,2013-04-01 21:30:00,
2013-04-01 15:44:00,50.1,22.0,30.19,NNE,33,5.0,14.0,33,0.00,,,0.00,weatherlink.com 1.10,2013-04-01 21:44:00,
2013-04-01 15:59:00,49.8,22.0,30.19,SE,143,5.0,10.0,34,0.00,,,0.00,weatherlink.com 1.10,2013-04-01 21:59:00,
2013-04-01 16:14:00,50.2,23.0,30.18,ESE,102,5.0,8.0,34,0.00,,,0.00,weatherlink.com 1.10,2013-04-01 22:14:00,
2013-04-01 16:29:00,50.1,22.0,30.18,East,99,8.0,12.0,33,0.00,,,0.00,weatherlink.com 1.10,2013-04-01 22:29:00,
2013-04-01 16:44:00,50.5,22.0,30.18,NE,41,3.0,9.0,33,0.00,,,0.00,weatherlink.com 1.10,2013-04-01 22:44:00,
2013-04-01 16:59:00,52.2,21.0,30.18,SSE,164,1.0,7.0,30,0.00,,,0.00,weatherlink.com 1.10,2013-04-01 22:59:00,
2013-04-01 17:14:00,51.1,21.0,30.18,East,80,3.0,9.0,31,0.00,,,0.00,weatherlink.com 1.10,2013-04-01 23:14:00,
2013-04-01 17:29:00,51.1,21.0,30.18,ESE,120,2.0,7.0,31,0.00,,,0.00,weatherlink.com 1.10,2013-04-01 23:29:00,
2013-04-01 17:44:00,51.7,21.0,30.18,South,172,5.0,5.0,30,0.00,,,0.00,weatherlink.com 1.10,2013-04-01 23:44:00,
2013-04-01 17:59:00,50.2,22.0,30.18,SSW,213,1.0,7.0,33,0.00,,,0.00,weatherlink.com 1.10,2013-04-01 23:59:00,
2013-04-01 18:14:00,50.4,21.0,30.19,SW,216,0.0,5.0,32,0.00,,,0.00,weatherlink.com 1.10,2013-04-02 00:14:00,
2013-04-01 18:29:00,50.2,23.0,30.19,SW,226,4.0,5.0,34,0.00,,,0.00,weatherlink.com 1.10,2013-04-02 00:29:00,
2013-04-01 18:44:00,50.1,23.0,30.19,SW,226,4.0,5.0,34,0.00,,,0.00,weatherlink.com 1.10,2013-04-02 00:44:00,
2013-04-01 18:59:00,49.6,25.0,30.19,SW,226,4.0,5.0,38,0.00,,,0.00,weatherlink.com 1.10,2013-04-02 00:59:00,
2013-04-01 19:14:00,49.4,23.0,30.19,SW,228,4.0,7.0,35,0.00,,,0.00,weatherlink.com 1.10,2013-04-02 01:14:00,
2013-04-01 19:29:00,48.9,23.0,30.20,SW,229,6.0,8.0,36,0.00,,,0.00,weatherlink.com 1.10,2013-04-02 01:29:00,
2013-04-01 19:44:00,48.3,25.0,30.20,SW,232,2.0,5.0,40,0.00,,,0.00,weatherlink.com 1.10,2013-04-02 01:44:00,
2013-04-01 19:59:00,47.7,24.0,30.20,SW,232,0.0,5.0,40,0.00,,,0.00,weatherlink.com 1.10,2013-04-02 01:59:00,
2013-04-01 20:14:00,47.4,25.0,30.21,SW,232,4.0,6.0,41,0.00,,,0.00,weatherlink.com 1.10,2013-04-02 02:14:00,
2013-04-01 20:29:00,47.4,25.0,30.21,SE,145,3.0,5.0,41,0.00,,,0.00,weatherlink.com 1.10,2013-04-02 02:29:00,
2013-04-01 20:44:00,47.6,24.0,30.22,SSE,168,1.0,3.0,40,0.00,,,0.00,weatherlink.com 1.10,2013-04-02 02:44:00,
2013-04-01 20:59:00,47.3,24.0,30.23,SSE,168,0.0,0.0,41,0.00,,,0.00,weatherlink.com 1.10,2013-04-02 02:59:00,
2013-04-01 21:14:00,47.9,24.0,30.23,ESE,105,0.0,4.0,39,0.00,,,0.00,weatherlink.com 1.10,2013-04-02 03:14:00,
2013-04-01 21:29:00,47.4,23.0,30.24,ESE,104,1.0,4.0,38,0.00,,,0.00,weatherlink.com 1.10,2013-04-02 03:29:00,
2013-04-01 21:44:00,46.7,22.0,30.25,ESE,110,7.0,11.0,38,0.00,,,0.00,weatherlink.com 1.10,2013-04-02 03:44:00,
2013-04-01 21:59:00,46.1,22.0,30.25,East,87,2.0,8.0,39,0.00,,,0.00,weatherlink.com 1.10,2013-04-02 03:59:00,
2013-04-01 22:14:00,45.7,21.0,30.25,SE,146,4.0,6.0,38,0.00,,,0.00,weatherlink.com 1.10,2013-04-02 04:14:00,
2013-04-01 22:29:00,45.1,22.0,30.25,East,101,0.0,3.0,40,0.00,,,0.00,weatherlink.com 1.10,2013-04-02 04:29:00,
2013-04-01 22:45:00,43.5,22.0,30.25,East,101,1.0,2.0,43,0.00,,,0.00,weatherlink.com 1.10,2013-04-02 04:45:00,
2013-04-01 22:59:00,42.2,23.0,30.25,East,99,2.0,3.0,47,0.00,,,0.00,weatherlink.com 1.10,2013-04-02 04:59:00,
2013-04-01 23:14:00,40.1,24.0,30.25,South,185,3.0,4.0,53,0.00,,,0.00,weatherlink.com 1.10,2013-04-02 05:14:00,
2013-04-01 23:29:00,39.3,24.0,30.25,SSW,200,3.0,4.0,54,0.00,,,0.00,weatherlink.com 1.10,2013-04-02 05:29:00,
2013-04-01 23:44:00,39.5,24.0,30.25,SSW,200,5.0,5.0,55,0.00,,,0.00,weatherlink.com 1.10,2013-04-02 05:44:00,
2013-04-01 23:59:00,39.5,25.0,30.25,SSW,200,0.0,1.0,56,0.00,,,0.00,weatherlink.com 1.10,2013-04-02 05:59:00,